Погода в Сергиевке

Россия / Астраханская область     45°58′07″N   47°37′17″E
темп.,
°C
ветер,
м/с
пор.,
м/с
влажн.,
%
обл.,
%
осадки,
мм/ч
давл.,
гПа
погр.,
м
24 сентября, пт
пт2401:00+13ссз5688100 5.1 1011332
04:00+14с6889100 7.8 1009337
07:00+14с81088100 0.0 1007473
10:00+14ссз9118376 0.0 1008524
13:00+14сз91081100 0.0 1008551
16:00+16сз9107383 0.0 1009784
19:00+14зсз91178100 0.0 1011659
22:00+13зсз71172100 0.0 1013568
25 сентября, сб
сб2501:00+12зсз5107921 0.0 1013375
04:00+11зсз47800 0.0 1013209
07:00+11з34830 0.0 1013117
10:00+15зюз126561 0.0 1013461
13:00+17ю2150100 0.0 1012846
16:00+19з2245100 0.0 1012976
19:00+18з2253100 0.0 101418
22:00+17з4653100 0.0 1014232
26 сентября, вс
вс2601:00+14юз5977100 1.6 1015511
04:00+14зюз71175100 1.6 1015631
07:00+12з610823 0.1 1016428
10:00+15з810625 0.1 1016779
13:00+18з895063 0.1 10151659
16:00+17з81047100 0.2 10151669
19:00+16з81254100 0.0 1014689
22:00+15зюз8147063 0.6 10131038
27 сентября, пн
пн2701:00+15зюз10168189 1.5 10111101
04:00+16з10157248 1.8 1010940
07:00+14з914730 0.2 1011787
10:00+15зсз1012610 0.2 10121208
13:00+17зсз911475 0.0 10121840
16:00+18зсз912405 0.0 10131963
19:00+15ссз8104930 0.0 1015747
22:00+13зсз58555 0.0 1016382
28 сентября, вт
вт2801:00+12зсз47634 0.0 1016253
04:00+11зсз47705 0.0 1017197
07:00+10зсз46745 0.0 1018156
10:00+15зсз446057 0.0 1020455
13:00+16ссз445744 0.0 1020780
16:00+17ссз44535 0.0 1020915
19:00+16ссз455982 0.1 1022166
22:00+13ссв7861100 0.4 1024540